Tracking 18186 objects as of 29-March-2017
HD Live streaming from Space Station
objects crossing your sky now

OPS 9312 (IDSCS 2)

Track OPS 9312 (IDSCS 2) now!
OPS 9312 (IDSCS 2) is classified as:


NORAD ID: 2216
Int'l Code: 1966-053C
Perigee: 33,676.0 km
Apogee: 33,913.0 km
Inclination: 2.7 °
Period: 1,335.2 minutes
Semi major axis: 40165 km
RCS: 0.3162 m2 (medium)
Launch date: June 16, 1966
Source: United States (US)
Launch site: AIR FORCE EASTERN TEST RANGE (AFETR)
Your satellite tracking list
Your tracking list is empty





NASA's NSSDC Master Catalog

Two Line Element Set (TLE):
1  2216U 66053C   17084.94297348 -.00000111 +00000-0 +00000-0 0  9991
2  2216 002.7232 058.5894 0029506 142.0631 071.9758 01.07850906012913
Source of the keplerian elements: AFSPC